Year,Month,Day,Hour,Minute,Value (Times are PST for temperature in C)
2015,03,08,08,28,5.80
2015,03,08,08,29,5.80
2015,03,08,08,30,5.90
2015,03,08,08,31,5.90
2015,03,08,08,32,5.90
2015,03,08,08,33,5.90
2015,03,08,08,34,5.90
2015,03,08,08,35,5.90
2015,03,08,08,36,5.90
2015,03,08,08,37,5.90
2015,03,08,08,38,5.90
2015,03,08,08,39,5.90
2015,03,08,08,40,5.90
2015,03,08,08,41,5.90
2015,03,08,08,42,5.90
2015,03,08,10,40,8.50
2015,03,08,10,41,8.50
2015,03,08,10,42,8.60
2015,03,08,10,43,8.60
2015,03,08,10,44,8.60
2015,03,08,10,45,8.60
2015,03,08,10,46,8.60
2015,03,08,10,47,8.70
2015,03,08,10,48,8.70
2015,03,08,10,49,8.70
2015,03,08,10,50,8.70
2015,03,08,10,51,8.70
2015,03,08,10,52,8.70
2015,03,08,10,53,8.80
2015,03,08,10,54,8.80
2015,03,08,10,55,8.80
2015,03,08,10,56,8.90
2015,03,08,10,57,9.00
2015,03,08,10,58,9.00
2015,03,08,10,59,9.00
2015,03,08,11,00,9.10
2015,03,08,11,01,9.10
2015,03,08,11,02,9.20
2015,03,08,11,03,9.10
2015,03,08,11,04,9.10
2015,03,08,11,05,9.10
2015,03,08,11,06,9.10
2015,03,08,11,07,9.10
2015,03,08,11,08,9.10
2015,03,08,11,09,9.10
2015,03,08,11,10,9.10
2015,03,08,11,11,9.10
2015,03,08,11,12,9.10
2015,03,08,11,13,9.20
2015,03,08,11,14,9.10
2015,03,08,11,15,9.10
2015,03,08,11,16,9.10
2015,03,08,11,17,9.10
2015,03,08,11,18,9.20
2015,03,08,11,19,9.20
2015,03,08,11,20,9.20
2015,03,08,11,21,9.30
2015,03,08,11,22,9.30
2015,03,08,11,23,9.40
2015,03,08,11,24,9.50
2015,03,08,11,25,9.60
2015,03,08,11,26,9.70
2015,03,08,11,27,9.70
2015,03,08,11,28,9.70
2015,03,08,11,29,9.70
2015,03,08,11,30,9.70
2015,03,08,11,31,9.80
2015,03,08,11,32,9.80
2015,03,08,11,33,9.90
2015,03,08,11,34,9.90
2015,03,08,11,35,10.00
2015,03,08,11,36,10.10
2015,03,08,11,37,10.20
2015,03,08,11,38,10.20
2015,03,08,11,39,10.40
2015,03,08,11,40,10.50
2015,03,08,11,41,10.60
2015,03,08,11,42,10.60
2015,03,08,11,43,10.70
2015,03,08,11,44,10.70
2015,03,08,11,45,10.80
2015,03,08,11,46,10.80
2015,03,08,11,47,10.80
2015,03,08,11,48,10.90
2015,03,08,11,49,10.90
2015,03,08,11,50,10.90
2015,03,08,11,51,10.90
2015,03,08,11,52,10.90
2015,03,08,11,53,10.90
2015,03,08,11,54,11.00
2015,03,08,11,55,11.10
2015,03,08,11,56,11.10
2015,03,08,11,57,11.20
2015,03,08,11,58,11.20
2015,03,08,11,59,11.30
2015,03,08,12,00,11.30
2015,03,08,12,01,11.40
2015,03,08,12,02,11.40
2015,03,08,12,03,11.40
2015,03,08,12,04,11.40
2015,03,08,12,05,11.40
2015,03,08,12,06,11.40
2015,03,08,12,07,11.40
2015,03,08,12,08,11.40
2015,03,08,12,09,11.40
2015,03,08,12,10,11.40
2015,03,08,12,11,11.40
2015,03,08,12,12,11.40
2015,03,08,12,13,11.40
2015,03,08,12,14,11.50
2015,03,08,12,15,11.60
2015,03,08,12,16,11.70
2015,03,08,12,17,11.80
2015,03,08,12,18,11.80
2015,03,08,12,19,11.80
2015,03,08,12,20,11.80
2015,03,08,12,21,11.90
2015,03,08,12,22,12.00
2015,03,08,12,23,12.00
2015,03,08,12,24,12.00
2015,03,08,12,25,12.10
2015,03,08,12,26,12.10
2015,03,08,12,27,12.20
2015,03,08,12,28,12.20
2015,03,08,12,29,12.30
2015,03,08,12,30,12.30
2015,03,08,12,31,12.30
2015,03,08,12,32,12.30
2015,03,08,12,33,12.30
2015,03,08,12,34,12.30
2015,03,08,12,35,12.30
2015,03,08,12,36,12.30
2015,03,08,12,37,12.40
2015,03,08,12,38,12.50
2015,03,08,12,39,12.50
2015,03,08,12,40,12.50
2015,03,08,12,41,12.50
2015,03,08,12,42,12.40
2015,03,08,12,43,12.30
2015,03,08,12,44,12.30
2015,03,08,12,45,12.30
2015,03,08,12,46,12.20
2015,03,08,12,47,12.20
2015,03,08,12,48,12.20
2015,03,08,12,49,12.30
2015,03,08,12,50,12.30
2015,03,08,12,51,12.40
2015,03,08,12,52,12.40
2015,03,08,12,53,12.50
2015,03,08,12,54,12.50
2015,03,08,12,55,12.60
2015,03,08,12,56,12.60
2015,03,08,12,57,12.70
2015,03,08,12,58,12.70
2015,03,08,12,59,12.80
2015,03,08,13,00,12.80
2015,03,08,13,01,12.80
2015,03,08,13,02,12.80
2015,03,08,13,03,12.70
2015,03,08,13,04,12.60
2015,03,08,13,05,12.60
2015,03,08,13,06,12.70
2015,03,08,13,07,12.80
2015,03,08,13,08,12.60
2015,03,08,13,09,12.60
2015,03,08,13,10,12.60
2015,03,08,13,11,12.70
2015,03,08,13,12,12.80
2015,03,08,13,13,12.80
2015,03,08,13,14,12.80
2015,03,08,13,15,12.80
2015,03,08,13,16,12.80
2015,03,08,13,17,12.70
2015,03,08,13,18,12.60
2015,03,08,13,19,12.60
2015,03,08,13,20,12.60
2015,03,08,13,21,12.60
2015,03,08,13,22,12.60
2015,03,08,13,23,12.60
2015,03,08,13,24,12.60
2015,03,08,13,25,12.60
2015,03,08,13,26,12.80
2015,03,08,13,27,12.80
2015,03,08,13,28,12.80
2015,03,08,13,29,12.80
2015,03,08,13,30,13.00
2015,03,08,13,31,13.10
2015,03,08,13,32,13.20
2015,03,08,13,33,13.20
2015,03,08,13,34,13.30
2015,03,08,13,35,13.30
2015,03,08,13,36,13.40
2015,03,08,13,37,13.40
2015,03,08,13,38,13.40
2015,03,08,13,39,13.30
2015,03,08,13,40,13.30
2015,03,08,13,41,13.10
2015,03,08,13,42,13.00
2015,03,08,13,43,12.90
2015,03,08,13,44,12.90
2015,03,08,13,45,12.90
2015,03,08,13,46,13.00
2015,03,08,13,47,13.00
2015,03,08,13,48,13.10
2015,03,08,13,49,13.10
2015,03,08,13,50,13.10
2015,03,08,13,51,13.10
2015,03,08,13,52,13.20
2015,03,08,13,53,13.10
2015,03,08,13,54,13.10
2015,03,08,13,55,13.10
2015,03,08,13,56,13.00
2015,03,08,13,57,13.10
2015,03,08,13,58,13.10
2015,03,08,13,59,13.00
2015,03,08,14,00,13.10
2015,03,08,14,01,13.10
2015,03,08,14,02,13.00
2015,03,08,14,03,13.00
2015,03,08,14,04,13.00
2015,03,08,14,05,13.10
2015,03,08,14,06,13.20
2015,03,08,14,07,13.10
2015,03,08,14,08,13.10
2015,03,08,14,09,13.10
2015,03,08,14,10,13.20
2015,03,08,14,11,13.30
2015,03,08,14,12,13.40
2015,03,08,14,13,13.50
2015,03,08,14,14,13.60
2015,03,08,14,15,13.60
2015,03,08,14,16,13.60
2015,03,08,14,17,13.70
2015,03,08,14,18,13.70
2015,03,08,14,19,13.70
2015,03,08,14,20,13.60
2015,03,08,14,21,13.50
2015,03,08,14,22,13.50
2015,03,08,14,23,13.50
2015,03,08,14,24,13.50
2015,03,08,14,25,13.50
2015,03,08,14,26,13.40
2015,03,08,14,27,13.40
2015,03,08,14,28,13.30
2015,03,08,14,29,13.30
2015,03,08,14,30,13.30
2015,03,08,14,31,13.30
2015,03,08,14,32,13.30
2015,03,08,14,33,13.30
2015,03,08,14,34,13.30
2015,03,08,14,35,13.10
2015,03,08,14,36,12.90
2015,03,08,14,37,12.80
2015,03,08,14,38,12.60
2015,03,08,14,39,12.50
2015,03,08,14,40,12.40
2015,03,08,14,41,12.30
2015,03,08,14,42,12.20
2015,03,08,14,43,12.20
2015,03,08,14,44,12.10
2015,03,08,14,45,12.10
2015,03,08,14,46,12.10
2015,03,08,14,47,12.10
2015,03,08,14,48,12.10
2015,03,08,14,49,12.10
2015,03,08,14,50,12.00
2015,03,08,14,51,12.00
2015,03,08,14,52,12.00
2015,03,08,14,53,12.10
2015,03,08,14,54,12.10
2015,03,08,14,55,12.10
2015,03,08,14,56,12.00
2015,03,08,14,57,12.10
2015,03,08,14,58,12.00
2015,03,08,14,59,12.10
2015,03,08,15,00,12.20
2015,03,08,15,01,12.30
2015,03,08,15,02,12.30
2015,03,08,15,03,12.30
2015,03,08,15,04,12.40
2015,03,08,15,05,12.50
2015,03,08,15,06,12.50
2015,03,08,15,07,12.60
2015,03,08,15,08,12.60
2015,03,08,15,09,12.70
2015,03,08,15,10,12.80
2015,03,08,15,11,12.80
2015,03,08,15,12,13.00
2015,03,08,15,13,13.00
2015,03,08,15,14,13.10
2015,03,08,15,15,13.20
2015,03,08,15,16,13.30
2015,03,08,15,17,13.30
2015,03,08,15,18,13.30
2015,03,08,15,19,13.30
2015,03,08,15,20,13.20
2015,03,08,15,21,13.20
2015,03,08,15,22,13.20
2015,03,08,15,23,13.20
2015,03,08,15,24,13.20
2015,03,08,15,25,13.30
2015,03,08,15,26,13.30
2015,03,08,15,27,13.30
2015,03,08,15,28,13.30
2015,03,08,15,29,13.30
2015,03,08,15,30,13.20
2015,03,08,15,31,13.20
2015,03,08,15,32,13.30
2015,03,08,15,33,13.30
2015,03,08,15,34,13.20
2015,03,08,15,35,13.20
2015,03,08,15,36,13.20
2015,03,08,15,37,13.20
2015,03,08,15,38,13.10
2015,03,08,15,39,13.00
2015,03,08,15,40,13.00
2015,03,08,15,41,12.90
2015,03,08,15,42,12.80
2015,03,08,15,43,12.80
2015,03,08,15,44,12.70
2015,03,08,15,45,12.70
2015,03,08,15,46,12.70
2015,03,08,15,47,12.70
2015,03,08,15,48,12.70
2015,03,08,15,49,12.70
2015,03,08,15,50,12.70
2015,03,08,15,51,12.80
2015,03,08,15,52,12.80
2015,03,08,15,53,12.70
2015,03,08,15,54,12.70
2015,03,08,15,55,12.60
2015,03,08,15,56,12.60
2015,03,08,15,57,12.60
2015,03,08,15,58,12.60
2015,03,08,15,59,12.60
2015,03,08,16,00,12.70
2015,03,08,16,01,12.70
2015,03,08,16,02,12.80
2015,03,08,16,03,12.80
2015,03,08,16,04,12.80
2015,03,08,16,05,12.80
2015,03,08,16,06,12.70
2015,03,08,16,07,12.70
2015,03,08,16,08,12.60
2015,03,08,16,09,12.50
2015,03,08,16,10,12.50
2015,03,08,16,11,12.40
2015,03,08,16,12,12.40
2015,03,08,16,13,12.30
2015,03,08,16,14,12.20
2015,03,08,16,15,12.10
2015,03,08,16,16,12.10
2015,03,08,16,17,12.10
2015,03,08,16,18,12.00
2015,03,08,16,19,12.00
2015,03,08,16,20,12.00
2015,03,08,16,21,11.90
2015,03,08,16,22,11.90
2015,03,08,16,23,11.80
2015,03,08,16,24,11.80
2015,03,08,16,25,11.80
2015,03,08,16,26,11.80
2015,03,08,16,27,11.80
2015,03,08,16,28,11.80
2015,03,08,16,29,11.80
2015,03,08,16,30,11.80
2015,03,08,16,31,11.80
2015,03,08,16,32,11.80
2015,03,08,16,33,11.80
2015,03,08,16,34,11.80
2015,03,08,16,35,11.80
2015,03,08,16,36,11.80
2015,03,08,16,37,11.80
2015,03,08,16,38,11.80
2015,03,08,16,39,11.80
2015,03,08,16,40,11.80
2015,03,08,16,41,11.90
2015,03,08,16,42,12.00
2015,03,08,16,43,12.00
2015,03,08,16,44,12.00
2015,03,08,16,45,12.10
2015,03,08,16,46,12.10
2015,03,08,16,47,12.20
2015,03,08,16,48,12.30
2015,03,08,16,49,12.30
2015,03,08,16,50,12.40
2015,03,08,16,51,12.40
2015,03,08,16,52,12.40
2015,03,08,16,53,12.40
2015,03,08,16,54,12.40
2015,03,08,16,55,12.40
2015,03,08,16,56,12.40
2015,03,08,16,57,12.40
2015,03,08,16,58,12.50
2015,03,08,16,59,12.50
2015,03,08,17,00,12.50
2015,03,08,17,01,12.60
2015,03,08,17,02,12.70
2015,03,08,17,03,12.80
2015,03,08,17,04,12.80
2015,03,08,17,05,12.90
2015,03,08,17,06,13.00
2015,03,08,17,07,13.10
2015,03,08,17,08,13.20
2015,03,08,17,09,13.30
2015,03,08,17,10,13.40
2015,03,08,17,11,13.40
2015,03,08,17,12,13.50
2015,03,08,17,13,13.50
2015,03,08,17,14,13.40
2015,03,08,17,15,13.40
2015,03,08,17,16,13.40
2015,03,08,17,17,13.40
2015,03,08,17,18,13.40
2015,03,08,17,19,13.30
2015,03,08,17,20,13.30
2015,03,08,17,21,13.30
2015,03,08,17,22,13.30
2015,03,08,17,23,13.20
2015,03,08,17,24,13.20
2015,03,08,17,25,13.10
2015,03,08,17,26,13.10
2015,03,08,17,27,13.10
2015,03,08,17,28,13.00
2015,03,08,17,29,13.00
2015,03,08,17,30,12.90
2015,03,08,17,31,12.80
2015,03,08,17,32,12.80
2015,03,08,17,33,12.70
2015,03,08,17,34,12.70
2015,03,08,17,35,12.70
2015,03,08,17,36,12.60
2015,03,08,17,37,12.60
2015,03,08,17,38,12.50
2015,03,08,17,39,12.40
2015,03,08,17,40,12.30
2015,03,08,17,41,12.30
2015,03,08,17,42,12.30
2015,03,08,17,43,12.10
2015,03,08,17,44,12.00
2015,03,08,17,45,12.00
2015,03,08,17,46,11.80
2015,03,08,17,47,11.80
2015,03,08,17,48,11.70
2015,03,08,17,49,11.60
2015,03,08,17,50,11.60
2015,03,08,17,51,11.60
2015,03,08,17,52,11.60
2015,03,08,17,53,11.60
2015,03,08,17,54,11.60
2015,03,08,17,55,11.60
2015,03,08,17,56,11.60
2015,03,08,17,57,11.60
2015,03,08,17,58,11.60
2015,03,08,17,59,11.60
2015,03,08,18,00,11.60
2015,03,08,18,01,11.60
2015,03,08,18,02,11.60
2015,03,08,18,03,11.60
2015,03,08,18,04,11.60
2015,03,08,18,05,11.40
2015,03,08,18,06,11.40
2015,03,08,18,07,11.40
2015,03,08,18,08,11.30
2015,03,08,18,09,11.20
2015,03,08,18,10,11.20
2015,03,08,18,11,11.20
2015,03,08,18,12,11.10
2015,03,08,18,13,11.10
2015,03,08,18,14,11.10
2015,03,08,18,15,11.10
2015,03,08,18,16,11.10
2015,03,08,18,17,11.10
2015,03,08,18,18,11.10
2015,03,08,18,19,11.00
2015,03,08,18,20,10.90
2015,03,08,18,21,10.90
2015,03,08,18,22,10.90
2015,03,08,18,23,10.90
2015,03,08,18,24,10.90
2015,03,08,18,25,10.90
2015,03,08,18,26,10.80
2015,03,08,18,27,10.80
2015,03,08,18,28,10.70
2015,03,08,18,29,10.70
2015,03,08,18,30,10.60
2015,03,08,18,31,10.60
2015,03,08,18,32,10.60
2015,03,08,18,33,10.60
2015,03,08,18,34,10.50
2015,03,08,18,35,10.40
2015,03,08,18,36,10.40
2015,03,08,18,37,10.40
2015,03,08,18,38,10.30
2015,03,08,18,39,10.30
2015,03,08,18,40,10.30
2015,03,08,18,41,10.20
2015,03,08,18,42,10.20
2015,03,08,18,43,10.10
2015,03,08,18,44,10.10
2015,03,08,18,45,10.10
2015,03,08,18,46,10.10
2015,03,08,18,47,10.00
2015,03,08,18,48,9.90
2015,03,08,18,49,9.90
2015,03,08,18,50,9.90
2015,03,08,18,51,9.80
2015,03,08,18,52,9.80
2015,03,08,18,53,9.70
2015,03,08,18,54,9.70
2015,03,08,18,55,9.70
2015,03,08,18,56,9.60
2015,03,08,18,57,9.60
2015,03,08,18,58,9.60
2015,03,08,18,59,9.50
2015,03,08,19,00,9.50
2015,03,08,19,01,9.40
2015,03,08,19,02,9.40
2015,03,08,19,03,9.40
2015,03,08,19,04,9.30
2015,03,08,19,05,9.30
2015,03,08,19,06,9.30
2015,03,08,19,07,9.20
2015,03,08,19,08,9.20
2015,03,08,19,09,9.20
2015,03,08,19,10,9.20
2015,03,08,19,11,9.10
2015,03,08,19,12,9.10
2015,03,08,19,13,9.10
2015,03,08,19,14,9.00
2015,03,08,19,15,9.00
2015,03,08,19,16,9.00
2015,03,08,19,17,8.90
2015,03,08,19,18,8.90
2015,03,08,19,19,8.80
2015,03,08,19,20,8.80
2015,03,08,19,21,8.80
2015,03,08,19,22,8.80
2015,03,08,19,23,8.80
2015,03,08,19,24,8.80
2015,03,08,19,25,8.80
2015,03,08,19,26,8.80
2015,03,08,19,27,8.80
2015,03,08,19,28,8.80
2015,03,08,19,29,8.80
2015,03,08,19,30,8.80
2015,03,08,19,31,8.80
